Time,TemperatureF,DewpointF,PressureIn,WindDirection,WindDirectionDegrees,WindSpeedMPH,WindSpeedGustMPH,Humidity,HourlyPrecipIn,Conditions,Clouds,dailyrainin,SoftwareType,DateUTC
2013-01-12 00:02:00,33.8,32.3,30.27,East,98,1.0,11.0,94,0.00,,,0.00,Wunderground v.1.15,2013-01-12 08:02:00,
2013-01-12 00:08:00,33.9,32.4,30.28,East,98,2.0,11.0,94,0.00,,,0.00,Wunderground v.1.15,2013-01-12 08:08:00,
2013-01-12 00:13:00,33.8,32.3,30.28,East,97,3.0,3.0,94,0.00,,,0.00,Wunderground v.1.15,2013-01-12 08:13:00,
2013-01-12 00:19:00,33.7,32.2,30.27,East,98,2.0,3.0,94,0.00,,,0.00,Wunderground v.1.15,2013-01-12 08:19:00,
2013-01-12 00:24:00,33.7,32.2,30.27,East,98,1.0,2.0,94,0.00,,,0.00,Wunderground v.1.15,2013-01-12 08:24:00,
2013-01-12 00:29:00,33.7,32.2,30.26,East,98,1.0,2.0,94,0.00,,,0.00,Wunderground v.1.15,2013-01-12 08:29:00,
2013-01-12 00:35:00,33.7,32.2,30.26,East,98,1.0,2.0,94,0.00,,,0.00,Wunderground v.1.15,2013-01-12 08:35:00,
2013-01-12 00:40:00,33.6,32.1,30.26,East,101,1.0,1.0,94,0.00,,,0.00,Wunderground v.1.15,2013-01-12 08:40:00,
2013-01-12 00:46:00,33.5,32.0,30.26,East,101,1.0,1.0,94,0.00,,,0.00,Wunderground v.1.15,2013-01-12 08:46:00,
2013-01-12 00:52:00,33.4,31.9,30.26,East,101,1.0,1.0,94,0.00,,,0.00,Wunderground v.1.15,2013-01-12 08:52:00,
2013-01-12 00:57:00,33.3,31.8,30.26,East,101,1.0,2.0,94,0.00,,,0.00,Wunderground v.1.15,2013-01-12 08:57:00,
2013-01-12 01:03:00,33.3,31.8,30.26,East,101,1.0,6.0,94,0.00,,,0.00,Wunderground v.1.15,2013-01-12 09:03:00,
2013-01-12 01:09:00,33.3,31.8,30.26,East,101,1.0,6.0,94,0.00,,,0.00,Wunderground v.1.15,2013-01-12 09:09:00,
2013-01-12 01:14:00,33.2,31.7,30.26,East,101,1.0,6.0,94,0.00,,,0.00,Wunderground v.1.15,2013-01-12 09:14:00,
2013-01-12 01:19:00,33.3,31.8,30.26,East,101,1.0,6.0,94,0.00,,,0.00,Wunderground v.1.15,2013-01-12 09:19:00,
2013-01-12 01:25:00,33.3,31.8,30.26,East,98,1.0,6.0,94,0.00,,,0.00,Wunderground v.1.15,2013-01-12 09:25:00,
2013-01-12 01:31:00,33.3,31.8,30.26,East,98,2.0,2.0,94,0.00,,,0.00,Wunderground v.1.15,2013-01-12 09:31:00,
2013-01-12 01:37:00,33.3,31.8,30.26,East,98,2.0,6.0,94,0.00,,,0.00,Wunderground v.1.15,2013-01-12 09:37:00,
2013-01-12 01:42:00,33.3,31.8,30.26,East,98,2.0,6.0,94,0.00,,,0.00,Wunderground v.1.15,2013-01-12 09:42:00,
2013-01-12 01:47:00,33.2,31.7,30.26,East,98,3.0,6.0,94,0.00,,,0.00,Wunderground v.1.15,2013-01-12 09:47:00,
2013-01-12 01:53:00,33.2,31.7,30.26,East,98,2.0,6.0,94,0.00,,,0.00,Wunderground v.1.15,2013-01-12 09:53:00,
2013-01-12 01:59:00,33.2,31.7,30.27,East,100,1.0,6.0,94,0.00,,,0.00,Wunderground v.1.15,2013-01-12 09:59:00,
2013-01-12 02:05:00,33.2,31.7,30.27,East,100,2.0,6.0,94,0.00,,,0.00,Wunderground v.1.15,2013-01-12 10:05:00,
2013-01-12 02:11:00,33.2,31.7,30.27,East,100,2.0,6.0,94,0.00,,,0.00,Wunderground v.1.15,2013-01-12 10:11:00,
2013-01-12 02:17:00,33.2,31.7,30.27,East,98,3.0,6.0,94,0.00,,,0.00,Wunderground v.1.15,2013-01-12 10:17:00,
2013-01-12 02:22:00,33.2,31.7,30.27,East,98,2.0,6.0,94,0.00,,,0.00,Wunderground v.1.15,2013-01-12 10:22:00,
2013-01-12 02:27:00,33.2,31.7,30.27,ESE,105,1.0,6.0,94,0.00,,,0.00,Wunderground v.1.15,2013-01-12 10:27:00,
2013-01-12 02:32:00,33.3,31.8,30.27,ESE,104,2.0,6.0,94,0.00,,,0.00,Wunderground v.1.15,2013-01-12 10:32:00,
2013-01-12 02:38:00,33.3,31.8,30.27,ESE,104,2.0,6.0,94,0.00,,,0.00,Wunderground v.1.15,2013-01-12 10:38:00,
2013-01-12 02:44:00,33.2,31.7,30.27,ESE,104,2.0,6.0,94,0.00,,,0.00,Wunderground v.1.15,2013-01-12 10:44:00,
2013-01-12 02:49:00,33.3,31.8,30.27,ESE,104,2.0,6.0,94,0.00,,,0.00,Wunderground v.1.15,2013-01-12 10:49:00,
2013-01-12 02:54:00,33.3,31.8,30.27,ESE,104,3.0,6.0,94,0.00,,,0.00,Wunderground v.1.15,2013-01-12 10:54:00,
2013-01-12 03:00:00,33.2,31.7,30.27,ESE,104,2.0,2.0,94,0.00,,,0.00,Wunderground v.1.15,2013-01-12 11:00:00,
2013-01-12 03:06:00,33.2,31.7,30.27,ESE,104,2.0,6.0,94,0.00,,,0.00,Wunderground v.1.15,2013-01-12 11:06:00,
2013-01-12 03:12:00,33.2,31.7,30.27,ESE,104,2.0,6.0,94,0.00,,,0.00,Wunderground v.1.15,2013-01-12 11:12:00,
2013-01-12 03:18:00,33.2,31.7,30.27,ESE,102,3.0,6.0,94,0.00,,,0.00,Wunderground v.1.15,2013-01-12 11:18:00,
2013-01-12 03:24:00,33.2,31.7,30.27,ESE,112,4.0,6.0,94,0.00,,,0.00,Wunderground v.1.15,2013-01-12 11:24:00,
2013-01-12 03:29:00,33.2,31.7,30.27,ESE,109,4.0,7.0,94,0.00,,,0.00,Wunderground v.1.15,2013-01-12 11:29:00,
2013-01-12 03:34:00,33.2,31.7,30.26,ESE,109,3.0,6.0,94,0.00,,,0.00,Wunderground v.1.15,2013-01-12 11:34:00,
2013-01-12 03:40:00,33.2,31.7,30.26,ESE,109,3.0,3.0,94,0.00,,,0.00,Wunderground v.1.15,2013-01-12 11:40:00,
2013-01-12 03:46:00,33.2,31.7,30.26,ESE,106,2.0,6.0,94,0.00,,,0.00,Wunderground v.1.15,2013-01-12 11:46:00,
2013-01-12 03:52:00,33.2,31.7,30.26,ESE,106,2.0,6.0,94,0.00,,,0.00,Wunderground v.1.15,2013-01-12 11:52:00,
2013-01-12 03:58:00,33.3,31.8,30.26,ESE,109,2.0,6.0,94,0.00,,,0.00,Wunderground v.1.15,2013-01-12 11:58:00,
2013-01-12 04:04:00,33.2,31.7,30.26,ESE,107,3.0,6.0,94,0.00,,,0.00,Wunderground v.1.15,2013-01-12 12:04:00,
2013-01-12 04:10:00,33.3,31.8,30.26,ESE,105,3.0,6.0,94,0.00,,,0.00,Wunderground v.1.15,2013-01-12 12:10:00,
2013-01-12 04:16:00,33.2,31.7,30.26,ESE,102,3.0,7.0,94,0.00,,,0.00,Wunderground v.1.15,2013-01-12 12:16:00,
2013-01-12 04:22:00,33.2,31.7,30.25,ESE,103,2.0,6.0,94,0.00,,,0.00,Wunderground v.1.15,2013-01-12 12:22:00,
2013-01-12 04:27:00,33.2,31.7,30.25,ESE,102,2.0,6.0,94,0.00,,,0.00,Wunderground v.1.15,2013-01-12 12:27:00,
2013-01-12 04:33:00,33.3,31.8,30.26,ESE,103,2.0,6.0,94,0.00,,,0.00,Wunderground v.1.15,2013-01-12 12:33:00,
2013-01-12 04:39:00,33.3,31.8,30.26,ESE,103,2.0,6.0,94,0.00,,,0.00,Wunderground v.1.15,2013-01-12 12:39:00,
2013-01-12 04:45:00,33.3,31.8,30.25,ESE,103,1.0,6.0,94,0.00,,,0.00,Wunderground v.1.15,2013-01-12 12:45:00,
2013-01-12 04:50:00,33.3,31.8,30.25,ESE,103,1.0,6.0,94,0.00,,,0.00,Wunderground v.1.15,2013-01-12 12:50:00,
2013-01-12 04:56:00,33.4,31.9,30.25,ESE,102,1.0,6.0,94,0.00,,,0.00,Wunderground v.1.15,2013-01-12 12:56:00,
2013-01-12 05:02:00,33.4,31.9,30.25,ESE,103,1.0,6.0,94,0.00,,,0.00,Wunderground v.1.15,2013-01-12 13:02:00,
2013-01-12 05:07:00,33.3,31.8,30.25,ESE,103,2.0,6.0,94,0.00,,,0.00,Wunderground v.1.15,2013-01-12 13:07:00,
2013-01-12 05:13:00,33.3,31.8,30.25,ESE,105,1.0,6.0,94,0.00,,,0.00,Wunderground v.1.15,2013-01-12 13:13:00,
2013-01-12 05:19:00,33.3,31.8,30.25,ESE,105,1.0,6.0,94,0.00,,,0.00,Wunderground v.1.15,2013-01-12 13:19:00,
2013-01-12 05:24:00,33.3,31.8,30.25,ESE,105,1.0,6.0,94,0.00,,,0.00,Wunderground v.1.15,2013-01-12 13:24:00,
2013-01-12 05:30:00,33.3,31.8,30.25,ESE,105,2.0,2.0,94,0.00,,,0.00,Wunderground v.1.15,2013-01-12 13:30:00,
2013-01-12 05:36:00,33.3,31.8,30.25,ESE,104,3.0,6.0,94,0.00,,,0.00,Wunderground v.1.15,2013-01-12 13:36:00,
2013-01-12 05:41:00,33.3,31.8,30.26,ESE,104,3.0,6.0,94,0.00,,,0.00,Wunderground v.1.15,2013-01-12 13:41:00,
2013-01-12 05:46:00,33.2,31.7,30.26,ESE,104,3.0,6.0,94,0.00,,,0.00,Wunderground v.1.15,2013-01-12 13:46:00,
2013-01-12 05:51:00,33.2,31.7,30.26,ESE,105,3.0,6.0,94,0.00,,,0.00,Wunderground v.1.15,2013-01-12 13:51:00,
2013-01-12 05:57:00,33.2,31.7,30.26,ESE,106,3.0,6.0,94,0.00,,,0.00,Wunderground v.1.15,2013-01-12 13:57:00,
2013-01-12 08:19:00,33.1,31.3,30.27,East,100,4.0,7.0,93,0.00,,,0.00,Wunderground v.1.15,2013-01-12 16:19:00,
2013-01-12 08:25:00,33.1,31.3,30.27,East,101,4.0,6.0,93,0.00,,,0.00,Wunderground v.1.15,2013-01-12 16:25:00,
2013-01-12 08:31:00,33.2,31.4,30.27,East,101,4.0,6.0,93,0.00,,,0.00,Wunderground v.1.15,2013-01-12 16:31:00,
2013-01-12 08:37:00,33.3,31.5,30.27,East,99,4.0,7.0,93,0.00,,,0.00,Wunderground v.1.15,2013-01-12 16:37:00,
2013-01-12 08:43:00,33.4,31.6,30.27,East,96,5.0,6.0,93,0.00,,,0.00,Wunderground v.1.15,2013-01-12 16:43:00,
2013-01-12 08:48:00,33.5,31.7,30.27,East,101,5.0,6.0,93,0.00,,,0.00,Wunderground v.1.15,2013-01-12 16:48:00,
2013-01-12 08:53:00,33.7,31.6,30.27,East,98,5.0,6.0,92,0.00,,,0.00,Wunderground v.1.15,2013-01-12 16:53:00,
2013-01-12 21:03:00,32.2,29.0,30.32,East,83,7.0,7.0,88,0.00,,,0.00,Wunderground v.1.15,2013-01-13 05:03:00,
2013-01-12 21:05:00,32.2,29.0,30.32,ENE,78,7.0,8.0,88,0.00,,,0.00,Wunderground v.1.15,2013-01-13 05:05:00,
2013-01-12 21:07:00,32.2,29.0,30.32,ENE,78,7.0,8.0,88,0.00,,,0.00,Wunderground v.1.15,2013-01-13 05:07:00,
2013-01-12 21:09:00,32.3,29.1,30.32,East,84,7.0,10.0,88,0.00,,,0.00,Wunderground v.1.15,2013-01-13 05:09:00,
2013-01-12 21:15:00,32.3,29.1,30.32,East,84,7.0,10.0,88,0.00,,,0.00,Wunderground v.1.15,2013-01-13 05:15:00,
2013-01-12 21:21:00,32.3,29.1,30.32,East,87,7.0,10.0,88,0.00,,,0.00,Wunderground v.1.15,2013-01-13 05:21:00,
2013-01-12 21:27:00,32.3,28.9,30.32,East,82,8.0,10.0,87,0.00,,,0.00,Wunderground v.1.15,2013-01-13 05:27:00,
2013-01-12 21:32:00,32.4,29.0,30.32,East,93,8.0,10.0,87,0.00,,,0.00,Wunderground v.1.15,2013-01-13 05:32:00,
2013-01-12 21:37:00,32.4,29.0,30.32,East,91,8.0,10.0,87,0.00,,,0.00,Wunderground v.1.15,2013-01-13 05:37:00,
2013-01-12 21:43:00,32.4,29.0,30.33,East,86,8.0,9.0,87,0.00,,,0.00,Wunderground v.1.15,2013-01-13 05:43:00,
2013-01-12 21:49:00,32.3,28.9,30.33,East,86,7.0,8.0,87,0.00,,,0.00,Wunderground v.1.15,2013-01-13 05:49:00,
2013-01-12 21:54:00,32.2,28.8,30.33,East,86,7.0,10.0,87,0.00,,,0.00,Wunderground v.1.15,2013-01-13 05:54:00,
2013-01-12 22:00:00,32.2,28.8,30.33,East,84,7.0,7.0,87,0.00,,,0.00,Wunderground v.1.15,2013-01-13 06:00:00,
2013-01-12 22:06:00,32.1,28.7,30.34,East,88,7.0,13.0,87,0.00,,,0.00,Wunderground v.1.15,2013-01-13 06:06:00,
2013-01-12 22:12:00,31.6,28.2,30.34,East,90,6.0,13.0,87,0.00,,,0.00,Wunderground v.1.15,2013-01-13 06:12:00,
2013-01-12 22:17:00,31.3,28.2,30.34,East,90,6.0,13.0,88,0.00,,,0.00,Wunderground v.1.15,2013-01-13 06:17:00,
2013-01-12 22:23:00,31.2,28.1,30.34,East,92,6.0,13.0,88,0.00,,,0.00,Wunderground v.1.15,2013-01-13 06:23:00,
2013-01-12 22:28:00,31.0,28.1,30.34,East,94,6.0,13.0,89,0.00,,,0.00,Wunderground v.1.15,2013-01-13 06:28:00,
2013-01-12 22:34:00,31.0,28.1,30.34,East,93,6.0,13.0,89,0.00,,,0.00,Wunderground v.1.15,2013-01-13 06:34:00,
2013-01-12 22:40:00,31.0,28.1,30.34,East,90,6.0,13.0,89,0.00,,,0.00,Wunderground v.1.15,2013-01-13 06:40:00,
2013-01-12 22:45:00,31.0,28.1,30.34,East,88,6.0,13.0,89,0.00,,,0.00,Wunderground v.1.15,2013-01-13 06:45:00,
2013-01-12 22:50:00,30.9,28.0,30.34,East,94,6.0,13.0,89,0.00,,,0.00,Wunderground v.1.15,2013-01-13 06:50:00,
2013-01-12 22:56:00,30.8,27.9,30.34,East,95,6.0,13.0,89,0.00,,,0.00,Wunderground v.1.15,2013-01-13 06:56:00,
2013-01-12 23:02:00,30.8,27.9,30.34,East,92,6.0,13.0,89,0.00,,,0.00,Wunderground v.1.15,2013-01-13 07:02:00,
2013-01-12 23:08:00,30.7,27.8,30.34,East,97,6.0,13.0,89,0.00,,,0.00,Wunderground v.1.15,2013-01-13 07:08:00,
2013-01-12 23:13:00,30.7,28.1,30.34,East,94,6.0,13.0,90,0.00,,,0.00,Wunderground v.1.15,2013-01-13 07:13:00,
2013-01-12 23:18:00,30.8,28.2,30.35,East,90,6.0,13.0,90,0.00,,,0.00,Wunderground v.1.15,2013-01-13 07:18:00,
2013-01-12 23:24:00,30.8,28.2,30.35,East,92,6.0,13.0,90,0.00,,,0.00,Wunderground v.1.15,2013-01-13 07:24:00,
2013-01-12 23:30:00,30.7,28.1,30.34,East,97,6.0,13.0,90,0.00,,,0.00,Wunderground v.1.15,2013-01-13 07:30:00,
2013-01-12 23:36:00,30.7,28.1,30.35,East,98,6.0,13.0,90,0.00,,,0.00,Wunderground v.1.15,2013-01-13 07:36:00,
2013-01-12 23:41:00,30.7,28.1,30.35,East,93,7.0,13.0,90,0.00,,,0.00,Wunderground v.1.15,2013-01-13 07:41:00,
2013-01-12 23:46:00,30.8,28.2,30.36,East,88,7.0,13.0,90,0.00,,,0.00,Wunderground v.1.15,2013-01-13 07:46:00,
2013-01-12 23:52:00,30.8,28.2,30.35,East,96,6.0,13.0,90,0.00,,,0.00,Wunderground v.1.15,2013-01-13 07:52:00,
2013-01-12 23:57:00,30.6,27.7,30.35,East,96,6.0,13.0,89,0.00,,,0.00,Wunderground v.1.15,2013-01-13 07:57:00,